GFSGBSN_925_temp_336.txt.gz
Temp
11 11 10 10 10 10 11 11 12 13 13 13 14 15 16 16 16 17 18 19 20 21 22 23 23 23 24 31 35 27 29 28 27 30 32 33 33 34 35 35 35 35 35 35 35 35 35
11 10 10 10 10 11 11 11 12 12 12 12 13 14 15 16 17 18 18 20 21 22 23 23 23 23 26 33 30 28 26 26 30 31 33 33 35 35 34 34 35 35 35 35 35 35 34
11 10 9 10 10 10 11 11 12 12 12 13 13 14 15 16 18 19 19 21 22 23 23 23 23 22 29 34 29 28 28 29 31 32 35 33 32 34 35 34 35 36 34 34 35 34 34
10 10 9 9 9 10 10 11 11 11 11 12 13 15 16 18 19 20 20 21 23 23 24 24 23 22 33 28 28 28 29 31 31 32 33 33 34 35 35 35 34 34 35 33 34 34 33
10 10 10 10 10 10 10 10 11 11 11 12 13 15 16 18 19 20 21 21 21 22 23 23 23 27 34 27 30 30 31 32 31 32 32 32 34 36 35 35 35 34 33 33 33 34 33
9 9 9 9 10 10 10 10 11 11 11 12 14 15 17 19 19 21 21 20 20 20 19 20 23 29 31 33 32 31 31 33 33 34 34 34 35 34 35 31 32 32 32 31 32 34 33
9 9 9 9 10 10 10 10 11 11 12 13 15 16 17 19 19 21 20 20 25 26 26 33 33 32 32 31 30 31 31 33 34 34 34 35 35 34 33 35 35 34 32 34 34 32 33
9 9 9 9 9 9 10 10 11 11 13 14 15 16 17 19 20 20 19 27 26 25 30 31 30 30 30 31 33 33 32 34 33 34 36 35 35 36 36 34 35 35 34 33 30 28 31
9 9 9 9 9 10 10 10 11 12 12 13 15 16 17 19 20 19 23 26 23 24 30 31 31 31 32 31 34 33 34 35 35 35 35 36 36 36 35 35 35 35 34 34 33 31 33
9 9 9 9 10 10 10 10 11 12 13 14 15 15 17 20 19 21 26 23 23 23 31 32 31 32 31 34 33 35 33 36 36 35 36 36 36 35 36 35 35 35 34 33 32 31 31
9 9 9 9 9 10 10 11 11 12 13 14 15 15 17 19 17 25 24 22 23 26 32 32 31 30 33 34 35 33 34 35 35 36 36 35 35 35 35 36 36 34 34 34 33 32 33
8 9 9 9 9 10 10 11 12 13 14 15 16 16 17 15 15 22 21 22 25 30 31 32 32 31 31 33 35 33 34 34 37 36 36 37 36 37 36 35 35 33 33 33 33 33 32
9 9 9 9 9 10 10 11 12 13 14 16 17 18 17 16 25 20 21 27 30 31 32 32 32 32 33 33 34 34 33 34 34 33 34 35 35 35 35 33 33 34 35 33 33 32 33
9 9 9 9 9 10 10 10 12 13 15 17 18 18 18 18 19 19 24 29 29 32 33 32 33 33 33 35 35 34 34 34 35 36 36 35 33 34 35 35 35 34 35 34 32 32 35
9 8 9 9 9 10 10 10 12 13 15 17 18 18 20 20 20 20 28 30 32 31 31 32 32 33 33 34 35 34 34 35 36 36 35 35 35 36 35 35 36 34 33 35 35 36 35
9 9 9 9 9 10 10 10 12 13 16 17 17 23 24 19 20 25 29 29 30 30 30 31 32 34 33 33 33 34 35 36 36 36 37 36 34 36 35 34 33 34 35 34 35 33 32
9 9 9 8 8 10 10 10 11 13 17 17 19 27 22 20 22 28 29 31 29 29 28 31 32 33 34 34 34 34 35 33 35 35 36 37 35 35 35 33 35 33 34 34 35 36 33
9 9 8 8 8 8 10 11 11 12 16 17 23 27 22 21 27 28 30 29 19 30 29 30 30 32 33 34 34 35 35 35 31 35 34 36 36 35 34 36 37 37 36 36 35 33 35
9 9 9 8 8 8 9 10 11 12 12 13 24 25 23 23 28 29 27 28 27 29 28 29 30 30 30 32 32 33 33 30 30 33 34 36 35 34 35 34 34 35 35 36 37 36 35
9 9 9 8 7 8 8 10 11 12 13 12 22 26 26 26 25 27 28 28 28 26 27 27 28 29 30 31 31 31 31 30 29 31 23 29 35 35 35 35 36 34 35 35 36 36 35
9 9 9 9 7 7 8 9 11 13 13 13 21 23 20 26 25 26 26 26 27 27 27 27 28 29 31 31 31 31 30 30 29 26 29 33 34 35 36 36 37 36 36 35 35 36 36
9 9 9 9 8 7 8 8 10 12 14 18 20 21 21 22 22 23 20 26 27 26 26 27 27 27 28 30 29 30 30 30 31 30 32 33 33 34 33 36 36 36 36 37 37 36 36
8 9 9 9 8 8 8 8 9 11 13 17 15 16 19 15 23 24 25 25 25 24 24 24 26 26 27 24 24 26 27 28 28 28 31 32 34 32 33 35 35 34 35 36 37 38 37
8 8 8 9 8 8 8 8 8 9 10 13 12 15 19 23 21 23 21 21 22 22 23 23 24 25 22 23 25 25 26 27 27 28 29 31 31 32 33 34 31 36 38 38 37 38 38
8 8 8 8 8 8 7 7 8 9 10 12 11 14 18 21 20 20 20 20 20 20 21 22 22 21 22 24 26 27 28 27 28 29 29 30 31 31 31 32 34 36 36 36 36 37 39
7 8 8 8 8 8 7 7 7 8 9 11 11 10 15 18 20 17 19 19 21 21 21 21 20 21 22 24 26 25 28 29 30 28 29 30 29 30 32 30 31 35 37 36 37 35 36
7 8 8 8 8 8 7 7 7 8 8 10 11 10 14 17 18 17 18 18 18 19 21 20 20 20 21 24 25 26 27 28 28 29 26 27 28 28 30 30 33 36 35 36 33 34 33
7 7 8 8 8 8 8 7 7 7 8 9 11 9 12 15 17 15 16 16 17 18 20 19 19 20 21 22 24 26 25 27 27 29 29 28 28 29 29 30 29 33 34 34 32 30 30
7 7 7 8 8 8 7 7 7 7 7 8 12 9 9 12 15 13 13 14 15 16 18 18 19 19 22 22 23 25 24 25 25 27 28 28 30 31 31 32 31 31 31 29 30 29 29

GFSGBSN_925_temp_339.txt.gz
Temp
11 10 10 10 10 11 11 11 13 13 14 14 15 15 15 16 16 17 18 19 21 22 23 23 23 23 23 32 36 30 31 30 28 31 35 35 36 37 35 36 38 37 37 38 38 38 37
11 10 9 10 10 10 10 11 12 12 12 13 14 15 16 16 17 18 20 20 22 22 23 23 24 23 25 34 34 28 28 27 31 34 35 36 37 38 37 38 37 38 38 38 38 37 37
10 10 10 10 10 10 10 11 11 11 12 12 14 15 16 17 18 19 21 21 22 23 23 24 24 22 31 36 34 31 31 31 34 35 37 37 36 37 39 38 38 38 37 37 37 37 36
10 10 9 9 10 10 10 11 11 11 12 13 15 16 17 17 18 20 21 22 23 24 24 24 24 23 34 34 34 33 32 33 35 36 37 37 35 38 38 38 38 37 36 34 36 37 36
10 9 10 9 9 10 10 10 11 11 12 14 15 16 17 19 19 20 21 22 22 23 24 24 23 29 35 31 34 34 34 36 36 36 36 35 37 38 38 37 35 36 26 26 25 37 36
10 10 10 10 10 10 10 10 11 11 12 14 15 16 17 19 19 21 22 21 21 21 22 23 27 32 34 36 36 35 35 36 37 37 37 37 37 37 38 37 29 26 33 33 34 28 36
10 10 10 10 10 10 10 11 11 11 13 14 15 16 18 19 20 21 21 21 27 28 28 34 35 36 36 37 36 35 35 37 37 37 36 37 37 37 37 37 35 37 36 34 35 36 36
9 9 10 10 10 10 11 11 11 12 13 14 15 17 18 20 21 21 19 29 31 30 33 34 35 36 36 35 35 37 36 36 36 36 37 38 37 35 31 37 37 37 35 31 36 35 34
9 9 9 10 10 10 10 11 11 13 13 14 15 17 18 20 21 20 25 30 28 29 33 35 35 35 35 35 37 37 37 37 36 36 37 37 39 37 33 37 36 32 33 30 36 35 35
9 9 9 9 10 10 11 11 12 13 13 14 16 17 18 21 18 27 29 29 28 29 33 34 34 35 36 36 36 39 37 37 37 37 38 38 39 37 33 37 35 35 34 37 35 35 32
9 9 9 9 10 10 11 11 12 13 13 15 16 16 17 19 17 28 29 28 29 30 33 36 36 37 37 36 38 37 37 38 37 37 38 38 39 38 37 38 37 34 30 37 37 36 36
9 9 9 10 10 10 11 12 13 13 14 15 17 17 18 18 18 26 27 28 29 31 33 35 35 34 36 36 38 38 37 38 39 38 39 39 41 39 39 39 37 37 37 37 37 36 32
10 9 9 10 10 10 11 12 12 13 15 17 18 18 17 19 29 27 27 30 31 33 37 35 34 36 36 36 37 37 36 35 36 35 36 38 38 39 39 37 37 37 37 34 30 26 24
10 9 9 10 10 11 11 12 13 13 15 17 19 19 21 21 25 26 28 31 31 36 37 37 37 36 35 37 37 36 36 36 36 37 38 37 36 38 38 38 37 37 37 29 30 34 27
10 9 9 9 10 10 11 11 12 13 16 17 19 21 24 26 24 26 30 31 34 36 37 36 36 36 36 37 37 37 36 36 37 38 37 38 37 40 39 39 39 36 37 38 35 38 36
9 9 9 9 10 10 11 11 12 13 17 15 18 27 29 26 26 27 30 30 35 35 34 35 35 36 36 37 36 37 37 38 38 39 39 39 37 40 39 39 39 38 37 35 34 33 32
9 9 9 9 9 10 11 11 12 13 17 17 20 29 27 26 27 30 30 33 35 34 33 34 35 36 37 37 37 37 37 38 39 39 39 39 39 38 39 37 37 37 36 37 36 37 35
10 9 9 9 9 10 10 11 12 13 16 21 27 30 27 27 29 31 32 34 19 34 33 34 34 35 36 38 37 37 37 39 38 39 38 39 38 37 38 40 39 38 38 38 36 36 29
9 9 9 9 9 9 10 11 12 13 12 14 28 30 28 28 29 32 33 32 32 33 33 34 34 35 36 36 36 37 38 35 37 37 37 38 37 36 37 39 39 37 38 39 40 30 22
9 9 9 9 9 9 10 11 12 13 12 13 26 29 30 29 31 30 33 32 31 31 32 32 33 33 34 34 36 36 37 34 35 36 26 33 37 37 37 38 39 37 37 38 39 37 35
9 9 9 9 9 9 9 10 12 14 15 13 27 29 26 30 30 31 31 32 32 31 31 32 32 33 34 34 35 35 36 34 33 27 32 35 36 37 38 39 39 39 38 38 37 38 36
8 9 9 9 9 9 9 10 11 14 17 19 24 24 26 27 28 28 25 29 30 32 30 31 31 34 33 33 34 34 35 34 34 34 34 36 35 36 36 38 38 38 39 39 38 38 38
8 8 9 9 9 9 9 9 10 12 15 21 21 22 23 24 27 28 29 30 30 31 29 29 30 32 31 32 29 31 33 34 35 34 35 36 36 36 35 37 37 36 38 38 39 39 38
7 8 8 9 9 9 8 9 9 10 11 16 18 19 23 25 26 27 27 27 27 27 27 29 28 29 27 28 29 30 31 33 33 33 35 35 35 36 35 36 34 38 40 39 39 39 40
7 8 8 8 8 9 8 8 9 10 11 14 16 18 22 23 26 25 24 25 26 24 24 26 27 26 27 28 29 30 31 31 32 33 34 35 35 34 34 34 36 37 38 39 38 38 40
7 8 8 8 8 9 8 8 8 9 10 13 15 15 19 21 24 22 22 23 24 26 26 25 26 26 26 28 29 28 30 31 31 32 34 35 34 34 34 33 33 37 39 40 40 37 40
7 8 8 8 8 8 8 8 7 8 10 10 15 14 17 20 23 21 22 22 23 24 25 26 25 24 26 26 28 29 30 32 32 32 32 32 32 32 32 32 35 37 39 39 35 36 38
7 7 8 8 8 8 8 8 7 8 9 10 15 13 14 19 21 20 20 20 21 21 23 24 23 25 26 25 27 29 29 31 32 32 33 31 31 32 32 32 31 37 37 35 36 35 35
7 7 8 8 8 8 8 8 8 8 9 9 13 13 12 15 19 18 17 17 18 19 20 23 23 23 25 26 27 28 29 30 30 30 32 31 33 33 33 34 35 36 37 35 36 34 33

GFSGBSN_925_temp_342.txt.gz
Temp
11 10 10 10 10 11 11 11 13 13 13 13 13 14 15 16 17 18 21 21 21 22 23 23 23 23 24 30 34 33 33 32 31 29 34 37 36 34 32 36 37 34 38 39 39 39 38
10 10 10 9 9 10 11 11 12 12 12 13 14 15 15 16 18 19 20 21 22 22 23 23 23 23 24 32 35 33 31 29 32 32 35 37 33 36 36 38 33 34 37 39 38 38 38
10 10 10 10 10 10 10 11 11 11 12 13 14 15 16 17 19 20 21 21 22 23 24 24 23 21 29 34 36 32 32 31 34 34 38 38 37 38 38 37 37 37 35 38 37 37 37
10 10 10 10 10 10 11 11 11 11 12 14 14 15 16 17 19 21 21 22 23 23 24 24 24 22 31 36 36 34 34 34 35 36 37 36 38 38 36 39 39 36 29 28 30 29 36
10 10 10 10 10 10 11 11 11 12 13 14 15 16 16 17 19 21 22 22 23 23 24 24 23 26 34 35 36 37 35 36 36 37 38 35 38 35 29 35 35 31 29 26 24 29 28
10 10 10 10 10 10 10 11 11 12 14 14 15 16 18 19 20 21 22 22 22 23 24 22 26 30 34 36 37 37 36 36 38 38 38 37 37 35 32 34 33 27 29 28 27 27 29
10 9 10 10 10 10 11 11 12 13 13 14 15 16 18 19 20 21 22 22 26 27 28 32 34 34 38 37 38 37 37 37 38 38 36 38 37 37 37 35 37 34 33 33 32 34 32
9 9 10 10 10 10 11 11 12 13 13 13 15 16 18 20 20 21 19 26 33 32 32 32 35 36 38 39 37 38 37 37 37 36 37 37 37 38 36 36 36 36 34 33 36 33 34
9 9 10 10 10 11 11 12 12 13 13 14 15 17 19 20 21 20 23 29 31 32 33 36 35 36 37 38 37 37 38 37 37 36 37 37 37 37 36 33 34 35 35 33 34 36 37
10 9 10 10 11 11 11 12 13 13 14 14 15 17 19 21 19 27 29 30 31 32 32 35 35 36 37 37 36 39 39 38 37 37 38 38 35 28 35 34 34 34 36 36 35 36 34
10 9 9 10 10 11 11 12 13 13 14 15 16 17 19 19 16 27 32 31 32 33 31 38 37 38 38 36 38 38 39 38 36 37 38 38 39 38 37 37 38 36 36 34 36 35 34
10 9 9 9 10 11 11 12 12 13 14 16 17 17 19 19 16 25 28 31 31 31 32 37 37 36 36 37 37 39 39 39 39 38 39 39 41 41 39 39 38 34 29 30 31 29 29
10 10 9 9 10 10 11 12 12 13 15 16 18 17 17 18 28 29 29 32 31 31 38 37 36 36 36 36 36 38 37 37 35 35 36 38 39 39 40 39 39 36 31 29 28 30 27
10 10 9 9 10 10 11 12 12 13 15 17 20 19 21 22 27 28 30 30 30 36 37 39 38 37 35 37 37 38 37 36 37 37 37 36 36 39 38 39 37 36 38 35 31 31 29
10 10 9 9 10 10 11 12 12 13 16 17 21 22 22 26 25 28 30 29 33 36 38 38 38 37 36 37 37 37 37 36 37 37 36 37 37 41 39 40 39 37 35 35 35 35 34
10 10 10 9 10 10 11 11 12 13 16 16 15 25 30 29 28 29 29 28 34 37 37 37 36 37 37 37 37 37 37 38 38 39 39 38 36 38 37 37 40 39 36 31 34 33 33
9 10 10 9 10 10 11 11 12 13 17 18 18 29 31 29 29 30 29 31 34 37 36 35 36 37 38 38 38 37 38 39 39 39 39 38 38 38 40 38 38 38 36 36 37 36 34
9 9 10 10 10 10 11 11 12 12 14 19 26 29 30 30 29 30 30 33 31 36 36 35 36 36 36 38 38 38 38 39 40 40 38 39 38 38 39 40 41 39 38 39 37 36 34
9 9 9 9 10 10 10 11 12 12 11 11 25 31 30 30 29 31 33 33 35 34 35 35 35 36 37 37 36 39 39 40 40 40 39 39 38 36 37 39 40 39 39 39 39 37 30
9 9 9 9 10 10 10 11 12 13 12 11 24 30 32 31 31 31 32 34 34 35 34 35 35 36 36 35 37 37 38 37 38 39 30 35 38 37 36 37 40 38 39 39 39 38 30
8 9 9 9 9 9 10 11 12 14 15 13 25 30 29 30 31 31 32 33 33 33 34 34 33 33 34 34 36 36 38 36 36 28 36 37 36 37 38 39 39 39 39 39 38 38 34
7 8 8 9 9 9 10 10 11 13 17 18 25 25 26 27 29 30 29 31 32 33 34 33 32 33 34 34 35 34 36 37 36 36 35 37 35 36 36 38 39 38 39 40 39 39 39
7 7 8 8 9 9 9 10 11 11 15 22 22 23 25 25 28 30 30 31 31 32 33 34 32 31 33 31 31 32 33 36 37 36 35 36 35 35 34 37 37 36 38 39 39 40 39
7 7 8 8 9 9 9 9 10 11 10 13 19 20 23 25 28 29 30 29 30 29 28 31 32 30 29 30 31 33 33 34 35 36 37 36 36 36 35 36 34 38 40 40 39 40 40
7 7 8 8 8 8 9 9 10 10 11 11 16 19 22 23 26 28 28 27 28 28 27 28 29 30 29 29 29 30 32 32 33 34 35 36 36 35 34 35 36 37 39 39 39 39 40
7 7 8 8 8 8 8 8 9 10 11 12 16 17 19 21 24 24 25 25 25 26 28 28 29 29 28 28 29 28 29 31 31 32 35 35 36 34 34 33 33 37 40 41 41 37 41
6 7 7 8 8 8 7 7 8 10 10 10 14 16 17 20 23 23 23 23 24 25 26 28 28 27 27 26 27 28 29 31 31 31 32 33 33 33 33 33 35 38 39 39 36 36 38
6 7 7 8 8 8 8 8 8 9 10 9 14 15 16 18 21 22 22 21 23 23 23 25 25 26 26 26 27 28 29 31 31 32 33 33 32 32 33 32 32 38 38 36 36 36 36
7 7 7 7 8 8 8 8 8 8 9 10 15 15 15 16 19 19 20 20 20 21 21 22 24 24 26 26 27 28 28 30 31 30 34 32 34 33 33 34 35 37 37 38 37 34 34

GFSGBSN_925_temp_345.txt.gz
Temp
10 10 10 10 10 11 11 11 12 12 12 13 14 15 16 17 19 20 20 21 22 22 22 23 23 23 24 24 27 33 33 32 32 30 31 33 30 25 25 27 34 31 35 38 38 37 36
10 10 10 10 10 11 11 11 11 12 12 14 14 15 16 17 19 20 21 21 22 22 22 23 23 23 21 25 34 34 33 32 30 30 32 33 31 29 31 32 32 34 33 35 33 32 37
10 10 10 10 10 10 11 11 12 12 13 14 15 15 16 17 19 20 21 22 22 23 23 23 23 21 23 26 34 33 32 32 31 31 32 34 34 31 34 29 31 35 33 35 31 32 33
10 10 10 10 10 11 11 11 11 12 13 14 14 15 16 18 19 20 21 22 22 23 23 23 23 20 22 32 35 33 32 32 32 34 34 34 35 30 30 29 32 31 29 29 31 31 31
10 10 10 10 11 11 11 12 13 13 14 14 14 15 16 18 20 21 22 22 23 23 23 23 22 21 26 35 34 35 34 34 34 35 35 36 35 33 31 31 29 29 27 28 29 31 29
10 9 9 10 10 10 11 12 13 13 14 13 14 16 17 18 19 21 22 22 22 22 23 21 23 25 28 32 36 36 36 35 35 35 35 34 31 32 30 29 29 28 28 29 28 30 29
9 9 9 10 10 11 11 12 13 13 14 14 15 16 18 18 19 19 22 22 22 21 23 25 27 28 33 34 36 35 36 36 35 34 33 34 32 31 33 31 31 31 28 28 30 31 30
10 9 9 10 10 11 12 12 12 13 13 14 15 16 18 19 19 19 18 19 27 31 27 26 29 30 32 35 34 35 36 34 33 33 34 34 33 34 34 33 34 31 29 29 30 32 30
10 9 9 10 10 11 12 12 12 13 13 14 15 16 18 20 20 20 20 24 29 29 28 31 29 30 32 34 34 33 36 35 33 33 34 32 34 35 33 31 33 34 31 30 30 32 28
10 9 9 9 10 11 11 12 12 13 13 14 15 16 17 20 19 21 24 30 30 30 26 30 31 32 33 36 34 37 37 35 34 33 34 34 35 32 30 30 29 32 34 34 34 31 30
10 10 9 9 10 10 11 12 12 13 13 14 15 16 17 16 17 19 28 28 31 31 25 34 33 36 35 33 35 34 38 35 34 34 34 34 32 29 30 31 32 33 35 34 31 29 28
10 9 9 9 10 10 11 12 12 13 14 15 16 17 17 17 15 26 28 30 31 26 27 35 34 33 33 33 34 35 35 36 36 34 35 35 37 32 31 33 32 35 33 29 26 25 25
10 9 9 9 10 10 11 12 12 13 14 16 17 18 16 16 21 27 27 28 26 26 34 34 33 34 33 32 33 33 33 33 32 31 32 34 35 37 37 32 31 33 30 27 26 25 25
10 10 9 9 9 10 10 11 12 13 14 16 19 21 22 22 25 25 27 26 25 31 32 36 34 34 33 33 33 34 33 32 33 33 31 31 32 35 38 34 31 30 26 27 28 28 27
9 10 10 9 10 10 10 11 12 13 14 16 19 21 21 25 26 25 24 24 27 31 35 36 35 33 32 33 33 33 33 33 34 34 31 31 33 37 34 34 31 29 28 32 32 31 27
9 9 9 9 10 10 10 11 11 12 15 16 16 19 25 27 26 25 24 24 29 32 33 34 33 35 32 33 33 32 33 34 34 35 34 33 31 35 32 35 33 33 35 30 24 26 26
9 9 9 9 10 10 10 10 11 11 15 17 16 22 29 28 27 25 24 26 30 33 33 34 32 32 33 34 34 34 33 35 35 35 35 34 33 33 33 31 28 33 30 30 23 22 24
8 9 9 9 9 10 10 10 10 10 13 17 18 24 30 30 25 25 25 28 28 31 32 35 34 32 32 33 33 34 34 35 37 36 34 35 32 31 33 35 35 35 32 29 28 29 30
8 8 9 9 9 10 10 10 10 10 10 8 16 24 30 30 25 26 28 29 31 31 32 34 33 33 33 32 31 33 35 38 37 36 35 34 33 31 32 34 34 34 34 33 33 31 29
8 8 8 9 9 9 10 10 11 11 11 10 17 24 27 27 28 28 28 29 30 33 33 34 32 31 32 31 32 32 34 37 37 32 31 33 33 31 31 31 34 34 35 34 33 30 28
7 7 8 8 9 9 10 10 11 12 13 12 19 25 24 25 27 27 28 28 29 30 33 32 32 31 31 29 30 31 34 35 35 30 36 34 32 34 32 34 35 35 36 36 33 33 29
7 7 8 8 8 9 9 10 10 11 15 14 20 20 21 22 25 26 27 29 29 31 31 31 30 32 31 29 27 27 29 29 33 34 35 33 30 34 31 33 34 34 35 36 37 36 29
7 7 8 8 8 9 9 9 10 10 13 16 19 20 20 21 24 25 26 28 30 30 30 31 30 30 29 27 28 28 28 29 30 32 31 31 29 29 29 32 32 32 34 35 34 35 30
7 7 7 7 8 9 9 9 9 10 9 9 14 17 18 21 23 24 26 27 29 26 26 28 28 28 26 27 28 29 29 30 31 31 32 30 30 28 28 31 29 32 34 35 35 36 36
6 7 7 7 8 8 9 9 9 10 10 10 13 16 17 18 21 24 24 25 26 25 26 27 28 27 27 26 25 26 28 30 30 31 32 31 30 28 28 28 30 34 35 35 35 33 36
7 6 7 7 8 8 8 9 9 9 10 12 14 16 16 17 21 22 22 23 22 22 24 26 27 28 27 23 24 25 25 29 29 31 32 31 29 27 28 29 29 31 35 37 36 32 34
7 6 7 7 8 8 8 8 9 9 10 10 13 15 16 16 20 21 21 20 22 21 21 22 22 26 25 22 22 23 24 27 26 28 28 27 27 27 27 28 31 33 35 36 32 31 32
7 7 7 7 8 8 8 8 9 9 9 9 13 15 15 15 16 20 21 19 19 20 18 19 21 22 22 22 22 23 24 25 26 27 27 26 26 26 27 28 28 33 33 33 31 30 30
6 6 7 7 7 8 8 8 8 9 9 10 12 13 13 14 16 17 18 20 20 20 18 19 19 20 20 19 20 20 22 24 24 25 27 27 27 26 28 27 30 31 34 32 30 28 29